Regional Weather Roundup
Issued by NWS

Home | Current Version | Previous Version | Text Only | Print | Product List | Glossary Off
Versions: 1 2 3 4 5 6 7 8 9 10 11 12 13 14 15 16 17 18 19 20 21 22 23 24 25 26 27

000
ASUS45 KGTF 052310
RWRMT
MONTANA HOURLY WEATHER ROUNDUP
NATIONAL WEATHER SERVICE GREAT FALLS MT
500 PM MDT TUE MAY 05 2015

NOTE: "FAIR" INDICATES FEW OR NO CLOUDS BELOW 12000 FEET WITH NO
SIGNIFICANT WEATHER AND/OR OBSTRUCTIONS TO VISIBILITY.

MTZ001>007-043-060000-
WEST OF THE DIVIDE

CITY           SKY/WX    TMP DP  RH WIND       PRES   REMARKS
KALISPELL      CLEAR     65  20  17 W17       29.79F
MISSOULA       PTSUNNY   63  33  32 W16       29.85F
BUTTE          RAIN      46  43  89 NW12G23   29.87R FOG
DEER LODGE       N/A     52  45  76 NW6       29.85S
EUREKA           N/A     63  19  19 SW8G26    29.83S
HAMILTON         N/A     57  34  41 N7        29.84R
LIBBY            N/A     59  25  27 S7        29.88S
$$

MTZ008-052>055-060000-
SOUTHWEST MONTANA

CITY           SKY/WX    TMP DP  RH WIND       PRES   REMARKS
BOZEMAN        CLOUDY    62  42  47 S21       29.78S
DILLON         CLOUDY    57  41  55 NW8       29.81R
$$

MTZ009-010-012-014-046-048-049-054-060000-
EAST SLOPES AND CENTRAL MONTANA

CITY           SKY/WX    TMP DP  RH WIND       PRES   REMARKS
CUT BANK       PTSUNNY   66  32  28 W28G37    29.72F
GREAT FALLS    CLOUDY    70  34  26 SW3       29.68S
MALMSTROM AFB  CLOUDY    70  37  29 E7        29.68S
HELENA         CLOUDY    63  44  50 SE9       29.76S
$$

MTZ011-013-016-021-045-047-050-051-060000-
NORTH CENTRAL MONTANA

CITY           SKY/WX    TMP DP  RH WIND       PRES   REMARKS
HAVRE          PTSUNNY   79  36  21 N6        29.63F
LEWISTOWN      LGT RAIN  57  44  62 S18G29    29.74S
CHINOOK          N/A     77  45  31 W8        29.61F
FORT BENTON      N/A     75  34  22 CALM      29.65F
$$

MTZ017>020-022>042-056>058-061-062-060000-
EASTERN PLAINS

CITY           SKY/WX    TMP DP  RH WIND       PRES   REMARKS
BAKER          SUNNY     71  49  45 SE26G35   29.77F
BILLINGS       PTSUNNY   78  37  22 SE15G22   29.64F
GLASGOW        MOSUNNY   79  41  25 SE15      29.64F
JORDAN           N/A     82  35  18 S9G22     29.63F
LIVINGSTON     CLOUDY    60  43  53 SW17G28   29.77F
MILES CITY     MOSUNNY   80  44  27 SE18G24   29.65F
SIDNEY         MOSUNNY   81  46  30 SE17G24   29.72F
WOLF POINT     MOSUNNY   84  44  24 SE9       29.65F
BIG TIMBER       N/A     64  43  45 SW25      29.72S
FORSYTH          N/A     81  41  24 SE9       29.63F
PLENTYWOOD       N/A     79  45  29 SE16G23   29.71F
POPLAR           N/A     82  39  21 E12       29.67F
$$

REGIONAL REPORTS...DAKOTAS

CITY           SKY/WX    TMP DP  RH WIND       PRES   REMARKS
WILLISTON      PTSUNNY   81  46  29 S17       29.74F
MINOT          SUNNY     77  27  15 SE20G31   29.84F
DICKINSON      MOSUNNY   69  49  48 S24G32    29.81F
BEACH          FAIR      70  48  46 SE31G39   29.78F
CROSBY         FAIR      77  45  31 SE20G26   29.76F
WATFORD CITY   FAIR      73  48  40 S26       29.76F
BISMARCK       SUNNY     78  38  23 S17       29.86F
GRAND FORKS    MOSUNNY   78  23  13 S16G24    29.96F
FARGO          SUNNY     78  42  27 S16G30    29.96F
BUFFALO SD       N/A     67  49  52 SE28G33   29.74F
RAPID CITY     CLOUDY    65  50  58 S17       29.85F
$$

REGIONAL REPORTS...WYOMING/IDAHO/WASHINGTON

CITY           SKY/WX    TMP DP  RH WIND       PRES   REMARKS
GILLETTE       MOSUNNY   68  47  46 SE26G33   29.76F
SHERIDAN       PTSUNNY   70  42  36 SE15      29.69F
BUFFALO WY     PTSUNNY   70  44  39 S12       29.76F
CODY           PTSUNNY   70  36  28 SW9       29.72F
YELLOWSTONE LA   N/A     56  33  42 W8        29.88F
IDAHO FALLS    CLOUDY    67  40  37 S10       29.74F
SALMON           N/A     63  46  55 W3        29.73S
BOISE          SUNNY     70  15  12 NW20G28   29.80F
SPOKANE        PTSUNNY   58  23  26 SW20G26   29.91F
$$

REGIONAL REPORTS...ALBERTA

CITY           SKY/WX    TMP DP  RH WIND       PRES   REMARKS
EDMONTON       CLOUDY    52  37  58 N15       29.75S
CALGARY        MOSUNNY   66  32  28 NE14G23   29.63F
LETHBRIDGE     MOSUNNY   68  27  21 SW15G24   29.67F
MEDICINE HAT   PTSUNNY   77  37  24 SW14G22   29.63F
$$

REGIONAL REPORTS...SASKATCHEWAN

CITY           SKY/WX    TMP DP  RH WIND       PRES   REMARKS
SWIFT CURRENT  LGT RAIN  68  41  37 W23G36    29.67S
REGINA         MOSUNNY   81  39  22 SE16G26   29.71F
SASKATOON        N/A     72  45  37 E13       29.71F
$$



USA.gov is the U.S. government's official web portal to all federal, state and local government web resources and services.